• In Hungary
  • List of Countries
  • For 7 days
  • Water Temperature
  • Satellite Maps
  • Weather Map
  • News
  • Weather Widgets
  • user-avatar
    Login

    Hourly Weather Jaú

    Today, 22 August, Wednesday

    Time Temperature Precipitation Wind Pressure Humidity
    00:00 +36°C° 0 mm 2 mps 748 mmHg 44%
    01:00 +36°C° 0 mm 2 mps 748 mmHg 42%
    02:00 +36°C° 0 mm 2 mps 748 mmHg 39%
    03:00 +35°C° 0 mm 2 mps 748 mmHg 46%
    04:00 +36°C° 0 mm 2 mps 748 mmHg 43%
    05:00 +36°C° 0 mm 2 mps 748 mmHg 40%
    06:00 +36°C° 0 mm 3 mps 749 mmHg 37%
    07:00 +38°C° 0 mm 3 mps 749 mmHg 32%
    08:00 +41°C° 0 mm 4 mps 749 mmHg 27%
    09:00 +43°C° 0 mm 4 mps 749 mmHg 22%
    10:00 +45°C° 0 mm 5 mps 749 mmHg 22%
    11:00 +46°C° 0 mm 5 mps 749 mmHg 23%
    12:00 +47°C° 0 mm 6 mps 749 mmHg 23%
    13:00 +46°C° 0 mm 6 mps 748 mmHg 24%
    14:00 +46°C° 0 mm 6 mps 748 mmHg 25%
    15:00 +46°C° 0 mm 6 mps 748 mmHg 26%
    16:00 +44°C° 0 mm 6 mps 748 mmHg 31%
    17:00 +42°C° 0 mm 5 mps 748 mmHg 35%
    18:00 +40°C° 0 mm 5 mps 748 mmHg 39%
    19:00 +40°C° 0 mm 4 mps 748 mmHg 41%
    20:00 +38°C° 0 mm 3 mps 748 mmHg 43%
    21:00 +37°C° 0 mm 2 mps 749 mmHg 45%
    22:00 +36°C° 0 mm 1 mps 748 mmHg 44%
    23:00 +35°C° 0 mm 1 mps 748 mmHg 44%

    Tomorrow, 23 August, Thursday

    Time Temperature Precipitation Wind Pressure Humidity
    00:00 +32°C° 0 mm 0 mps 748 mmHg 44%
    01:00 +35°C° 0 mm 1 mps 748 mmHg 40%
    02:00 +36°C° 0 mm 2 mps 748 mmHg 37%
    03:00 +36°C° 0 mm 3 mps 747 mmHg 34%
    04:00 +37°C° 0 mm 4 mps 748 mmHg 33%
    05:00 +37°C° 0 mm 4 mps 748 mmHg 31%
    06:00 +37°C° 0 mm 5 mps 748 mmHg 29%
    07:00 +40°C° 0 mm 6 mps 748 mmHg 26%
    08:00 +42°C° 0 mm 6 mps 749 mmHg 23%
    09:00 +45°C° 0 mm 6 mps 749 mmHg 21%
    10:00 +46°C° 0 mm 7 mps 749 mmHg 20%
    11:00 +47°C° 0 mm 7 mps 749 mmHg 20%
    12:00 +47°C° 0 mm 7 mps 748 mmHg 20%
    13:00 +47°C° 0 mm 7 mps 748 mmHg 21%
    14:00 +46°C° 0 mm 7 mps 748 mmHg 22%
    15:00 +46°C° 0 mm 7 mps 748 mmHg 24%
    16:00 +45°C° 0 mm 7 mps 748 mmHg 27%
    17:00 +44°C° 0 mm 6 mps 748 mmHg 30%
    18:00 +41°C° 0 mm 5 mps 748 mmHg 33%
    19:00 +41°C° 0 mm 5 mps 748 mmHg 34%
    20:00 +40°C° 0 mm 4 mps 748 mmHg 36%
    21:00 +38°C° 0 mm 3 mps 749 mmHg 37%
    22:00 +38°C° 0 mm 3 mps 749 mmHg 36%
    23:00 +38°C° 0 mm 4 mps 748 mmHg 35%

    Day after tomorrow, 24 August, Friday

    Time Temperature Precipitation Wind Pressure Humidity
    00:00 +38°C° 0 mm 4 mps 748 mmHg 34%
    01:00 +39°C° 0 mm 5 mps 748 mmHg 39%
    02:00 +39°C° 0 mm 5 mps 748 mmHg 44%
    03:00 +38°C° 0 mm 6 mps 748 mmHg 49%
    04:00 +38°C° 0 mm 6 mps 748 mmHg 49%
    05:00 +38°C° 0 mm 6 mps 748 mmHg 50%
    06:00 +39°C° 0 mm 7 mps 748 mmHg 50%
    07:00 +40°C° 0 mm 7 mps 749 mmHg 42%
    08:00 +43°C° 0 mm 8 mps 749 mmHg 34%
    09:00 +45°C° 0 mm 9 mps 749 mmHg 26%
    10:00 +47°C° 0 mm 9 mps 749 mmHg 25%
    11:00 +48°C° 0 mm 9 mps 749 mmHg 23%
    12:00 +48°C° 0 mm 9 mps 749 mmHg 21%
    13:00 +48°C° 0 mm 9 mps 749 mmHg 22%
    14:00 +47°C° 0 mm 9 mps 748 mmHg 23%
    15:00 +47°C° 0 mm 9 mps 748 mmHg 24%
    16:00 +45°C° 0 mm 8 mps 748 mmHg 27%
    17:00 +44°C° 0 mm 7 mps 748 mmHg 30%
    18:00 +41°C° 0 mm 6 mps 748 mmHg 33%
    19:00 +41°C° 0 mm 5 mps 748 mmHg 36%
    20:00 +40°C° 0 mm 4 mps 748 mmHg 38%
    21:00 +38°C° 0 mm 3 mps 749 mmHg 41%
    22:00 +38°C° 0 mm 3 mps 748 mmHg 40%
    23:00 +37°C° 0 mm 3 mps 748 mmHg 40%

    25 August, Saturday

    Time Temperature Precipitation Wind Pressure Humidity
    00:00 +37°C° 0 mm 3 mps 748 mmHg 39%
    01:00 +37°C° 0 mm 4 mps 748 mmHg 39%
    02:00 +37°C° 0 mm 4 mps 747 mmHg 40%
    03:00 +37°C° 0 mm 4 mps 747 mmHg 40%
    04:00 +37°C° 0 mm 4 mps 747 mmHg 43%
    05:00 +37°C° 0 mm 4 mps 748 mmHg 45%
    06:00 +37°C° 0 mm 4 mps 748 mmHg 48%
    07:00 +40°C° 0 mm 4 mps 748 mmHg 42%
    08:00 +41°C° 0 mm 4 mps 748 mmHg 36%
    09:00 +43°C° 0 mm 5 mps 749 mmHg 30%
    10:00 +45°C° 0 mm 5 mps 748 mmHg 27%
    11:00 +47°C° 0 mm 5 mps 748 mmHg 24%
    12:00 +48°C° 0 mm 5 mps 748 mmHg 21%
    13:00 +47°C° 0 mm 6 mps 747 mmHg 22%
    14:00 +47°C° 0 mm 6 mps 747 mmHg 22%
    15:00 +47°C° 0 mm 6 mps 746 mmHg 23%
    16:00 +45°C° 0 mm 6 mps 746 mmHg 26%
    17:00 +44°C° 0 mm 6 mps 746 mmHg 30%
    18:00 +41°C° 0 mm 6 mps 747 mmHg 34%
    19:00 +41°C° 0 mm 5 mps 747 mmHg 36%
    20:00 +40°C° 0 mm 4 mps 747 mmHg 37%
    21:00 +38°C° 0 mm 3 mps 747 mmHg 39%
    22:00 +38°C° 0 mm 2 mps 747 mmHg 38%
    23:00 +36°C° 0 mm 1 mps 747 mmHg 37%

    26 August, Sunday

    Time Temperature Precipitation Wind Pressure Humidity
    00:00 +35°C° 0 mm 1 mps 746 mmHg 36%
    01:00 +35°C° 0 mm 1 mps 746 mmHg 36%
    02:00 +36°C° 0 mm 2 mps 746 mmHg 36%
    03:00 +36°C° 0 mm 2 mps 746 mmHg 35%
    04:00 +36°C° 0 mm 2 mps 746 mmHg 34%
    05:00 +36°C° 0 mm 2 mps 746 mmHg 33%
    06:00 +36°C° 0 mm 2 mps 747 mmHg 32%
    07:00 +38°C° 0 mm 2 mps 747 mmHg 27%
    08:00 +40°C° 0 mm 2 mps 747 mmHg 23%
    09:00 +42°C° 0 mm 1 mps 747 mmHg 19%
    10:00 +43°C° 0 mm 2 mps 747 mmHg 17%
    11:00 +45°C° 0 mm 2 mps 747 mmHg 16%
    12:00 +46°C° 0 mm 2 mps 746 mmHg 15%
    13:00 +46°C° 0 mm 2 mps 746 mmHg 15%
    14:00 +46°C° 0 mm 3 mps 745 mmHg 15%
    15:00 +48°C° 0 mm 4 mps 745 mmHg 15%
    16:00 +45°C° 0 mm 4 mps 745 mmHg 19%
    17:00 +43°C° 0 mm 5 mps 745 mmHg 24%
    18:00 +42°C° 0 mm 5 mps 745 mmHg 28%
    19:00 +41°C° 0 mm 5 mps 746 mmHg 32%
    20:00 +40°C° 0 mm 4 mps 746 mmHg 36%
    21:00 +38°C° 0 mm 4 mps 747 mmHg 39%
    22:00 +38°C° 0 mm 3 mps 746 mmHg 40%
    23:00 +37°C° 0 mm 3 mps 746 mmHg 41%

    27 August, Monday

    Time Temperature Precipitation Wind Pressure Humidity
    00:00 +37°C° 0 mm 2 mps 746 mmHg 42%
    01:00 +36°C° 0 mm 2 mps 746 mmHg 43%
    02:00 +36°C° 0 mm 3 mps 746 mmHg 44%
    03:00 +36°C° 0 mm 3 mps 746 mmHg 44%
    04:00 +36°C° 0 mm 3 mps 746 mmHg 47%
    05:00 +35°C° 0 mm 3 mps 747 mmHg 51%
    06:00 +35°C° 0 mm 3 mps 747 mmHg 54%
    07:00 +37°C° 0 mm 2 mps 748 mmHg 48%
    08:00 +38°C° 0 mm 2 mps 748 mmHg 42%
    09:00 +40°C° 0 mm 1 mps 748 mmHg 37%
    10:00 +41°C° 0 mm 2 mps 748 mmHg 33%
    11:00 +42°C° 0 mm 2 mps 748 mmHg 30%
    12:00 +44°C° 0 mm 3 mps 748 mmHg 27%
    13:00 +44°C° 0 mm 4 mps 747 mmHg 28%
    14:00 +44°C° 0 mm 4 mps 747 mmHg 30%
    15:00 +45°C° 0 mm 5 mps 746 mmHg 32%
    16:00 +43°C° 0 mm 5 mps 747 mmHg 36%
    17:00 +42°C° 0 mm 5 mps 747 mmHg 40%
    18:00 +41°C° 0 mm 5 mps 747 mmHg 44%
    19:00 +40°C° 0 mm 4 mps 747 mmHg 46%
    20:00 +38°C° 0 mm 4 mps 748 mmHg 49%
    21:00 +38°C° 0 mm 3 mps 748 mmHg 51%
    22:00 +37°C° 0 mm 3 mps 748 mmHg 51%
    23:00 +37°C° 0 mm 3 mps 747 mmHg 50%
    Show more